Location: Smoky Mountain Stargaze
(35.4252°N, 83.3329°W)
Time: 05:47:53
(UTC-04:00)

Amateur Radio Satellites - All Passes

Search period start: 20 October 2014 05:17
Search period end: 21 October 2014 05:17
Location: Smoky Mountain Stargaze, 35.4252°N, 83.3329°W

Satellite Date Start Highest point End Downlink Frequencies (MHz)
Time Altitude Azimuth
Uosat F 20 Oct 05:20:08 05:24:35 30° 97° (E) 05:28:59 435.120 FM
AO-Echo 20 Oct 05:21:40 05:22:46 11° 298° (WNW) 05:23:52 ?
OPAL 20 Oct 05:44:30 05:49:40 73° 73° (ENE) 05:54:48 ?
Sapphire 20 Oct 06:12:35 06:17:53 56° 299° (WNW) 06:23:13 437.095 MHz 1200 baud AX-25 AFSK
JAS-2 20 Oct 06:17:04 06:24:04 36° 96° (E) 06:31:05 435.800 - 435.900 CW/SSB, 435.910 FM
AO-7 20 Oct 06:34:14 06:42:25 64° 292° (WNW) 06:50:35 29.400 - 29.500 MHz
PCSat 20 Oct 06:36:23 06:41:13 33° 304° (NW) 06:46:05 145.825 MHz
Hamsat 20 Oct 06:48:25 06:52:10 31° 97° (E) 06:55:55 145.90 MHz
Uosat F 20 Oct 06:59:02 07:03:12 27° 292° (WNW) 07:07:22 435.120 FM
STRAND 1 20 Oct 07:20:32 07:25:32 57° 73° (ENE) 07:30:34 ?
OPAL 20 Oct 07:27:35 07:28:57 11° 267° (W) 07:30:19 ?
RS-15 20 Oct 07:28:02 07:37:32 31° 42° (NE) 07:47:17 29.354 - 29.394 USB, Beacon 29.352 USB
JAS-2 20 Oct 08:01:49 08:09:00 45° 291° (WNW) 08:16:18 435.800 - 435.900 CW/SSB, 435.910 FM
Hamsat 20 Oct 08:25:04 08:27:52 18° 291° (WNW) 08:30:40 145.90 MHz
AO-7 20 Oct 08:30:54 08:33:33 12° 310° (NW) 08:36:14 29.400 - 29.500 MHz
SO-67 20 Oct 08:32:00 08:35:26 71° 101° (E) 08:38:52 435.3500 MHz FM
STRAND 1 20 Oct 09:02:25 09:05:02 14° 268° (W) 09:07:40 ?
HO-68 20 Oct 09:10:05 09:14:14 16° 92° (E) 09:18:22 435.675 MHz FM
Saudisat 1A 20 Oct 09:28:40 09:33:03 82° 118° (ESE) 09:37:27 436.775 MHz
RS-15 20 Oct 09:39:49 09:51:02 79° 244° (WSW) 10:02:47 29.354 - 29.394 USB, Beacon 29.352 USB
PANSAT 20 Oct 09:52:49 09:54:59 15° 162° (SSE) 09:57:09 not established
Oscar 11 20 Oct 10:21:34 10:24:26 17° 94° (E) 10:27:18 145.825 FM, Beacon 2401.500 USB
HO-68 20 Oct 10:55:20 11:02:33 78° 287° (WNW) 11:09:43 435.675 MHz FM
ZACube-1 20 Oct 10:56:22 10:59:11 17° 93° (E) 11:01:57 437.345 MHz
UKube-1 20 Oct 11:10:10 11:14:33 75° 102° (ESE) 11:18:54 145.840 MHz, 145.915 MHz
Saudisat 1A 20 Oct 11:11:52 11:13:10 11° 316° (NW) 11:14:29 436.775 MHz
PANSAT 20 Oct 11:31:21 11:34:37 27° 174° (S) 11:37:52 not established
FUNcube-1 20 Oct 11:41:14 11:45:29 60° 100° (E) 11:49:36 145.950 - 145.970 MHz USB
RS-15 20 Oct 11:56:05 12:01:39 15° 261° (W) 12:07:22 29.354 - 29.394 USB, Beacon 29.352 USB
Oscar 11 20 Oct 11:56:48 12:00:40 33° 288° (WNW) 12:04:30 145.825 FM, Beacon 2401.500 USB
MaSat-1 20 Oct 12:08:54 12:10:43 17° 254° (WSW) 12:12:26 437.345 MHz
ZACube-1 20 Oct 12:31:50 12:35:39 32° 288° (WNW) 12:39:23 437.345 MHz
HO-68 20 Oct 12:46:04 12:49:05 13° 305° (NW) 12:52:05 435.675 MHz FM
JAS-1B 20 Oct 12:58:07 12:59:57 12° 61° (ENE) 13:01:45 435.800 - 435.900 CW/SSB
PANSAT 20 Oct 13:11:07 13:14:20 26° 187° (S) 13:17:34 not established
KITSAT 1 20 Oct 13:28:50 13:36:43 60° 112° (ESE) 13:44:37 435.175 FM
Oscar 19 20 Oct 13:30:44 13:34:59 27° 68° (ENE) 13:39:15 437.125 CW, 437.150 USB
AO-27 20 Oct 13:38:19 13:40:29 13° 62° (ENE) 13:42:40 436.795 MHz FM
PCSat 20 Oct 13:45:03 13:48:01 15° 48° (NE) 13:50:59 145.825 MHz
SO-50 20 Oct 14:01:02 14:04:47 27° 112° (ESE) 14:08:38 436.795 FM
Oscar 16 20 Oct 14:14:32 14:19:42 76° 75° (ENE) 14:24:52 437.025 USB, Beacon 2401.1428
Gurwin Techsat 1B 20 Oct 14:22:47 14:26:12 18° 65° (ENE) 14:29:38 435.225 FM
Uribyol 2 20 Oct 14:25:32 14:30:21 39° 71° (ENE) 14:35:12 436.500 FM
ITAMSAT 1 20 Oct 14:30:15 14:35:05 41° 71° (ENE) 14:39:58 435.822 SSB
TMSAT-1 20 Oct 14:37:15 14:40:41 18° 65° (ENE) 14:44:07 436.925 FM
JAS-1B 20 Oct 14:43:35 14:50:00 81° 256° (WSW) 14:55:46 435.800 - 435.900 CW/SSB
ISS 20 Oct 14:48:27 14:51:46 71° 136° (SE) 14:55:05 145.800 FM
AO-Echo 20 Oct 14:49:28 14:54:15 81° 76° (ENE) 14:59:12 ?
PANSAT 20 Oct 14:52:00 14:53:57 14° 199° (SSW) 14:55:54 not established
Sapphire 20 Oct 15:03:31 15:08:54 60° 61° (ENE) 15:14:14 437.095 MHz 1200 baud AX-25 AFSK
Oscar 19 20 Oct 15:09:37 15:14:10 31° 263° (W) 15:18:44 437.125 CW, 437.150 USB
AO-27 20 Oct 15:14:09 15:19:20 72° 258° (WSW) 15:24:34 436.795 MHz FM
KITSAT 1 20 Oct 15:25:38 15:32:31 30° 311° (NW) 15:39:27 435.175 FM
PCSat 20 Oct 15:26:37 15:32:03 78° 246° (WSW) 15:37:26 145.825 MHz
AO-7 20 Oct 15:38:55 15:45:31 28° 59° (ENE) 15:52:08 29.400 - 29.500 MHz
SO-50 20 Oct 15:41:23 15:45:14 28° 308° (NW) 15:49:12 436.795 FM
UOSAT-12 20 Oct 15:50:57 15:55:03 33° 113° (ESE) 15:59:14 437.025 FM, 437.400 FM
Oscar 16 20 Oct 15:58:58 15:59:31 10° 269° (W) 16:00:04 437.025 USB, Beacon 2401.1428
Gurwin Techsat 1B 20 Oct 16:00:33 16:05:42 52° 260° (W) 16:10:53 435.225 FM
Uribyol 2 20 Oct 16:06:00 16:09:54 21° 265° (W) 16:13:51 436.500 FM
ITAMSAT 1 20 Oct 16:10:54 16:14:41 20° 265° (W) 16:18:31 435.822 SSB
TMSAT-1 20 Oct 16:15:00 16:20:08 52° 260° (W) 16:25:19 436.925 FM
Oscar 10/S400 20 Oct 16:21:54 16:40:09 62° 163° (SSE) 17:21:41 145.825 - 145.975 CW/USB, Beacon 145.810 USB
ISS 20 Oct 16:26:47 16:28:47 15° 333° (NNW) 16:30:47 145.800 FM
Uosat F 20 Oct 16:30:34 16:34:56 31° 69° (ENE) 16:39:19 435.120 FM
Sapphire 20 Oct 16:48:41 16:51:44 15° 256° (WSW) 16:54:47 437.095 MHz 1200 baud AX-25 AFSK
AO-7 20 Oct 17:29:34 17:37:42 62° 256° (WSW) 17:45:54 29.400 - 29.500 MHz
UOSAT-12 20 Oct 17:31:22 17:35:12 25° 309° (NW) 17:39:06 437.025 FM, 437.400 FM
Hamsat 20 Oct 17:39:50 17:42:29 16° 68° (ENE) 17:45:08 145.90 MHz
OPAL 20 Oct 17:58:21 18:02:19 24° 98° (E) 18:06:14 ?
Saudisat 1A 20 Oct 17:58:34 18:02:22 27° 53° (NE) 18:06:09 436.775 MHz
Uosat F 20 Oct 18:09:33 18:13:40 25° 264° (W) 18:17:48 435.120 FM
JAS-2 20 Oct 18:10:37 18:16:08 65° 73° (ENE) 18:22:23 435.800 - 435.900 CW/SSB, 435.910 FM
SO-67 20 Oct 19:03:04 19:04:57 14° 70° (ENE) 19:06:50 435.3500 MHz FM
Hamsat 20 Oct 19:14:15 19:18:08 35° 262° (W) 19:22:00 145.90 MHz
STRAND 1 20 Oct 19:34:52 19:39:04 25° 96° (E) 19:43:14 ?
OPAL 20 Oct 19:36:47 19:41:11 33° 292° (WNW) 19:45:34 ?
Saudisat 1A 20 Oct 19:38:09 19:41:50 26° 248° (WSW) 19:45:30 436.775 MHz
JAS-2 20 Oct 19:58:54 20:01:56 15° 272° (W) 20:05:07 435.800 - 435.900 CW/SSB, 435.910 FM
SO-67 20 Oct 20:34:49 20:37:41 25° 264° (W) 20:40:34 435.3500 MHz FM
STRAND 1 20 Oct 21:13:39 21:18:14 33° 290° (WNW) 21:22:48 ?
Oscar 11 20 Oct 21:16:42 21:16:50 10° 65° (ENE) 21:16:59 145.825 FM, Beacon 2401.500 USB
ISS 20 Oct 21:20:00 21:22:47 24° 33° (NNE) 21:25:32 145.800 FM
HO-68 20 Oct 21:20:07 21:27:05 59° 70° (ENE) 21:34:05 435.675 MHz FM
KITSAT 1 20 Oct 21:26:31 21:31:56 19° 41° (NE) 21:37:19 435.175 FM
AO-40 20 Oct 21:40:27 23:40:40 34° 215° (SW) 04:06:47 Beacon 2401.320
ZACube-1 20 Oct 21:51:21 21:52:56 12° 65° (ENE) 21:54:31 437.345 MHz
RS-15 20 Oct 21:51:50 21:58:57 20° 101° (E) 22:05:58 29.354 - 29.394 USB, Beacon 29.352 USB
UKube-1 20 Oct 22:02:36 22:06:42 42° 73° (ENE) 22:10:49 145.840 MHz, 145.915 MHz
FUNcube-1 20 Oct 22:34:18 22:38:28 35° 72° (ENE) 22:42:37 145.950 - 145.970 MHz USB
SO-50 20 Oct 22:35:58 22:38:40 15° 46° (NE) 22:41:23 436.795 FM
Oscar 11 20 Oct 22:48:08 22:52:26 63° 259° (W) 22:56:45 145.825 FM, Beacon 2401.500 USB
ISS 20 Oct 22:56:30 22:59:30 31° 228° (SW) 23:02:28 145.800 FM
HO-68 20 Oct 23:09:44 23:15:06 23° 265° (W) 23:20:31 435.675 MHz FM
KITSAT 1 20 Oct 23:20:27 23:28:35 83° 62° (ENE) 23:36:39 435.175 FM
ZACube-1 20 Oct 23:24:12 23:28:46 62° 259° (W) 23:33:19 437.345 MHz
UKube-1 20 Oct 23:40:49 23:43:03 14° 267° (W) 23:45:18 145.840 MHz, 145.915 MHz
RS-15 20 Oct 23:58:44 00:09:49 86° 299° (WNW) 00:20:48 29.354 - 29.394 USB, Beacon 29.352 USB
MaSat-1 21 Oct 00:10:04 00:11:06 11° 103° (ESE) 00:12:07 437.345 MHz
FUNcube-1 21 Oct 00:11:35 00:14:53 19° 266° (W) 00:18:10 145.950 - 145.970 MHz USB
SO-50 21 Oct 00:14:53 00:19:43 72° 243° (WSW) 00:24:35 436.795 FM
UOSAT-12 21 Oct 00:24:14 00:26:59 15° 46° (NE) 00:29:43 437.025 FM, 437.400 FM
KITSAT 1 21 Oct 01:18:08 01:22:57 17° 258° (WSW) 01:27:47 435.175 FM
MaSat-1 21 Oct 01:42:14 01:46:31 55° 295° (WNW) 01:50:27 437.345 MHz
Oscar 19 21 Oct 01:47:34 01:48:57 11° 91° (E) 01:50:20 437.125 CW, 437.150 USB
UOSAT-12 21 Oct 02:02:55 02:07:34 64° 243° (WSW) 02:12:07 437.025 FM, 437.400 FM
RS-15 21 Oct 02:15:24 02:23:53 25° 323° (NW) 02:32:26 29.354 - 29.394 USB, Beacon 29.352 USB
JAS-1B 21 Oct 02:29:24 02:35:22 33° 99° (E) 02:42:16 435.800 - 435.900 CW/SSB
Oscar 16 21 Oct 02:29:45 02:34:23 34° 98° (E) 02:38:59 437.025 USB, Beacon 2401.1428
Uribyol 2 21 Oct 02:42:22 02:45:51 18° 94° (E) 02:49:18 436.500 FM
ITAMSAT 1 21 Oct 02:47:08 02:50:46 19° 94° (E) 02:54:21 435.822 SSB
AO-Echo 21 Oct 02:59:47 03:04:37 35° 97° (E) 03:09:26 ?
Oscar 19 21 Oct 03:23:38 03:28:43 70° 285° (WNW) 03:33:47 437.125 CW, 437.150 USB
AO-27 21 Oct 03:30:24 03:35:31 53° 100° (E) 03:40:36 436.795 MHz FM
Sapphire 21 Oct 04:03:21 04:04:45 11° 102° (ESE) 04:06:08 437.095 MHz 1200 baud AX-25 AFSK
Oscar 16 21 Oct 04:09:27 04:13:31 25° 292° (WNW) 04:17:36 437.025 USB, Beacon 2401.1428
Gurwin Techsat 1B 21 Oct 04:19:43 04:25:03 82° 103° (ESE) 04:30:22 435.225 FM
JAS-1B 21 Oct 04:19:55 04:25:55 40° 290° (WNW) 04:32:56 435.800 - 435.900 CW/SSB
Uribyol 2 21 Oct 04:20:32 04:25:31 46° 288° (WNW) 04:30:27 436.500 FM
PCSat 21 Oct 04:23:33 04:27:30 21° 106° (ESE) 04:31:28 145.825 MHz
ITAMSAT 1 21 Oct 04:25:27 04:30:25 45° 288° (WNW) 04:35:20 435.822 SSB
TMSAT-1 21 Oct 04:33:47 04:39:07 82° 103° (ESE) 04:44:25 436.925 FM
RS-15 21 Oct 04:38:44 04:42:17 12° 360° (N) 04:45:51 29.354 - 29.394 USB, Beacon 29.352 USB
AO-Echo 21 Oct 04:38:51 04:43:09 26° 292° (WNW) 04:47:27 ?
Uosat F 21 Oct 04:43:21 04:45:08 12° 92° (E) 04:46:54 435.120 FM
AO-27 21 Oct 05:11:17 05:14:33 17° 296° (WNW) 05:17:48 436.795 MHz FM
